Weather History for Tarapoto, Peru

Change the Weather History Date:

Wednesday, February 20, 2013

  Actual Average Record
Temperature  
Mean Temperature 81 °F -  
Max Temperature 91 °F 90 °F - ()
Min Temperature 71 °F 68 °F - ()
Cooling Degree Days 16    
Growing Degree Days 31 (Base 50)    
Moisture  
Dew Point 72 °F    
Average Humidity 73    
Maximum Humidity 94    
Minimum Humidity 48    
Precipitation  
Precipitation 0.00 in 0.17 in - ()
Sea Level Pressure  
Sea Level Pressure 29.86 in    
Wind  
Wind Speed 2 mph ()    
Max Wind Speed 9 mph    
Max Gust Speed -    
Visibility 6.2 miles    
Events      
T = Trace of Precipitation, MM = Missing Value Source: Averaged Metar Reports

Daily Weather History Graph

Daily Weather History Graph

Search for Another Location

Airport:

Trip Planner

Search our weather history database for the weather conditions in past years. The results will help you decide how hot, cold, wet, or windy it might be!

Date:

Astronomy

Feb. 20, 2013 Rise Set
Actual Time 6:10 AM PET 6:27 PM PET
Civil Twilight 5:49 AM PET 6:48 PM PET
Nautical Twilight 5:24 AM PET 7:13 PM PET
Astronomical Twilight 5:00 AM PET 7:38 PM PET
Moon 2:29 PM PET (2/20) 1:45 AM PET (2/20)
Length of Visible Light 12h 59m
Length of Day
12h 16m
Waxing Gibbous, 76% of the Moon is Illuminated
Feb 20
Waxing Gibbous
Feb 25
Full
Mar 4
Last Quarter
Mar 11
New
Mar 19
First Quarter

Hourly Weather History & Observations

Time (PET) Temp. Heat Index Dew Point Humidity Pressure Visibility Wind Dir Wind Speed Gust Speed Precip Events Conditions
4:00 AM 74 °F - 71 °F 86% 30.02 in 6 mi Calm Calm - -   Partly Cloudy
4:00 AM 73.4 °F - 71.6 °F 94% 29.83 in 6.2 mi Calm Calm - N/A   Mostly Cloudy
5:00 AM 73.4 °F - 71.6 °F 94% 29.83 in 6.2 mi Variable 1.2 mph - N/A   Mostly Cloudy
6:00 AM 71.6 °F - 69.8 °F 94% 29.86 in 6.2 mi Calm Calm - N/A   Mostly Cloudy
7:00 AM 72 °F - 71 °F 94% 30.06 in 6 mi 2.3 mph - -   Partly Cloudy
7:00 AM 71.6 °F - 69.8 °F 94% 29.86 in 6.2 mi Calm Calm - N/A   Mostly Cloudy
8:00 AM 73.4 °F - 69.8 °F 88% 29.89 in 6.2 mi Variable 1.2 mph - N/A   Mostly Cloudy
9:00 AM 77.0 °F - 71.6 °F 83% 29.92 in 6.2 mi Variable 1.2 mph - N/A   Mostly Cloudy
10:00 AM 80.6 °F 84.6 °F 71.6 °F 74% 29.92 in 6.2 mi Variable 2.3 mph - N/A   Mostly Cloudy
11:00 AM 84.2 °F 89.6 °F 71.6 °F 66% 29.92 in 6.2 mi South 4.6 mph - N/A   Mostly Cloudy
12:00 PM 87.8 °F 95.6 °F 73.4 °F 62% 29.89 in 6.2 mi South 5.8 mph - N/A   Mostly Cloudy
1:00 PM 89 °F - 74 °F 53% 30.01 in 6 mi 2.3 mph - -   Partly Cloudy
1:00 PM 89.6 °F 98.2 °F 73.4 °F 59% 29.83 in 6.2 mi Variable 2.3 mph - N/A   Mostly Cloudy
2:00 PM 89.6 °F 98.2 °F 73.4 °F 59% 29.80 in 6.2 mi ENE 9.2 mph - N/A   Mostly Cloudy
3:00 PM 89.6 °F 98.2 °F 73.4 °F 59% 29.74 in 6.2 mi NNW 9.2 mph - N/A   Mostly Cloudy
4:00 PM 91 °F - 74 °F 48% 29.89 in 6 mi North 3.5 mph - -   Partly Cloudy
4:00 PM 91.4 °F 100.1 °F 73.4 °F 55% 29.71 in 6.2 mi North 3.5 mph - N/A   Scattered Clouds
5:00 PM 91.4 °F 100.1 °F 73.4 °F 55% 29.71 in 6.2 mi North 3.5 mph - N/A   Scattered Clouds
6:00 PM 89.6 °F 98.2 °F 73.4 °F 59% 29.71 in 6.2 mi WNW 3.5 mph - N/A   Scattered Clouds
7:00 PM 86.0 °F 93.4 °F 73.4 °F 66% 29.74 in 6.2 mi Calm Calm - N/A   Partly Cloudy
8:00 PM 80.6 °F 84.6 °F 71.6 °F 74% 29.77 in 6.2 mi Calm Calm - N/A   Partly Cloudy
9:00 PM 78.8 °F - 71.6 °F 78% 29.80 in 6.2 mi Calm Calm - N/A   Partly Cloudy
10:00 PM 77 °F - 72 °F 80% 30.01 in 6 mi Calm Calm - -   Partly Cloudy
10:00 PM 77.0 °F - 71.6 °F 83% 29.83 in 6.2 mi Calm Calm - N/A   Partly Cloudy